DW1024 Weather Reports


time (UTC)temp
C
wind
direction
speed
KPH
gust
KPH
rain 1hr
cm
rain 24hr
cm
rain mn
cm
humidity
%
barometer
mb
20260508062106 8 200 1.6 4.8 0.00 0.00 0.00 96 1017.5
20260508060605 7 65 0.0 0.0 0.00 0.00 0.00 96 1017.4
20260508055105 7 140 0.0 0.0 0.00 0.00 0.00 95 1017.1
20260508052104 7 121 0.0 0.0 0.00 0.00 0.00 94 1017.0
20260508045101 7 210 0.0 3.2 0.00 0.00 0.00 93 1016.9
20260508042102 6 164 0.0 3.2 0.00 0.00 0.00 91 1016.7
20260508040600 6 164 0.0 1.6 0.00 0.00 0.00 91 1016.7
20260508035102 6 164 0.0 1.6 0.00 0.00 0.00 90 1016.7
20260508033606 6 164 0.0 4.8 0.00 0.00 0.00 90 1016.6
20260508032105 5 218 0.0 4.8 0.00 0.00 0.00 89 1016.5
20260508030607 5 47 0.0 1.6 0.00 0.00 0.00 88 1016.3
20260508025103 5 47 0.0 0.0 0.00 0.00 0.00 86 1016.4
20260508022100 6 47 0.0 0.0 0.00 0.00 0.00 86 1016.6
20260508020557 6 47 0.0 0.0 0.00 0.00 0.00 86 1016.6
20260508015105 6 47 0.0 0.0 0.00 0.00 0.00 85 1016.7
20260508013554 7 47 0.0 0.0 0.00 0.00 0.00 85 1016.7
20260508012053 7 47 0.0 0.0 0.00 0.00 0.00 85 1016.7
20260508010553 7 47 0.0 0.0 0.00 0.00 0.00 85 1016.7
20260508005052 8 47 0.0 0.0 0.00 0.00 0.00 84 1016.7
20260508003555 8 47 0.0 0.0 0.00 0.00 0.00 84 1016.8
20260508002048 8 47 0.0 0.0 0.00 0.00 0.00 84 1016.9
20260508000549 9 47 0.0 0.0 0.00 0.00 0.00 83 1017.0
20260507235053 10 47 0.0 0.0 0.00 0.00 0.00 84 1017.1
20260507233545 10 47 0.0 0.0 0.00 0.00 0.00 84 1017.2
20260507232046 10 47 0.0 0.0 0.00 0.00 0.00 84 1017.3
20260507230548 10 47 0.0 1.6 0.00 0.00 0.00 84 1017.3
20260507225044 10 47 0.0 1.6 0.00 0.00 0.00 84 1017.4
20260507223545 10 47 0.0 1.6 0.00 0.00 0.00 84 1017.5
20260507222040 10 47 0.0 0.0 0.00 0.00 0.00 83 1017.5
20260507220557 10 47 0.0 1.6 0.00 0.00 0.00 83 1017.5
20260507215036 10 47 0.0 1.6 0.00 0.00 0.00 82 1017.5
20260507213536 10 47 0.0 1.6 0.00 0.00 0.00 81 1017.5
20260507212041 10 47 0.0 0.0 0.00 0.00 0.00 80 1017.5
20260507210552 11 47 0.0 0.0 0.00 0.00 0.00 80 1017.5
20260507205032 11 47 0.0 0.0 0.00 0.00 0.00 79 1017.5
20260507202030 11 47 0.0 3.2 0.00 0.00 0.00 79 1017.4
20260507200530 11 47 1.6 8.0 0.00 0.00 0.00 79 1017.1
20260507195031 11 36 3.2 6.4 0.00 0.00 0.00 79 1017.0
20260507193523 11 58 3.2 6.4 0.00 0.00 0.00 78 1017.0
20260507190523 12 66 3.2 11.3 0.00 0.00 0.00 75 1016.6
20260507185022 13 39 1.6 6.4 0.00 0.00 0.00 74 1016.2
20260507183525 13 140 1.6 8.0 0.00 0.00 0.00 73 1016.2
20260507182015 13 186 1.6 9.7 0.00 0.00 0.00 73 1016.1
20260507180515 13 23 1.6 9.7 0.00 0.00 0.00 73 1015.7
20260507175016 13 235 1.6 12.9 0.00 0.00 0.00 73 1015.5
20260507173518 13 348 3.2 14.5 0.00 0.00 0.00 73 1015.3
20260507172018 13 53 3.2 9.7 0.00 0.00 0.00 72 1015.1
20260507165016 14 104 3.2 8.0 0.00 0.00 0.00 70 1015.2
20260507163518 14 261 1.6 4.8 0.00 0.00 0.00 66 1015.1
20260507162017 15 281 1.6 11.3 0.00 0.00 0.00 66 1015.1
20260507160519 15 92 1.6 8.0 0.00 0.00 0.00 67 1014.8
20260507155016 15 292 3.2 12.9 0.00 0.00 0.00 68 1014.8
20260507152016 16 234 3.2 16.1 0.00 0.03 0.00 65 1014.8
20260507150512 16 90 4.8 12.9 0.00 0.23 0.00 61 1014.6
20260507145013 16 254 3.2 11.3 0.00 0.61 0.00 64 1014.6
20260507143513 15 300 4.8 19.3 0.00 0.84 0.00 66 1014.7
20260507140515 16 161 3.2 11.3 0.00 0.84 0.00 64 1014.7
20260507135012 16 74 4.8 12.9 0.00 0.84 0.00 63 1014.8
20260507133515 16 38 4.8 11.3 0.00 0.84 0.00 62 1014.8
20260507130514 17 315 4.8 14.5 0.00 0.84 0.00 63 1014.8
20260507125013 16 235 4.8 19.3 0.00 0.84 0.00 66 1014.8
20260507122012 16 285 6.4 22.5 0.00 0.84 0.00 61 1014.7
20260507120519 15 290 6.4 16.1 0.00 0.84 0.00 64 1014.7
20260507115012 15 218 4.8 17.7 0.00 0.84 0.00 65 1014.8
20260507110503 15 292 6.4 22.5 0.00 0.84 0.00 67 1015.1
20260507105006 14 232 8.0 20.9 0.00 0.84 0.00 68 1015.0
20260507103505 13 182 6.4 20.9 0.00 0.84 0.00 68 1015.0
20260507102006 13 270 6.4 16.1 0.00 0.84 0.00 72 1015.0
20260507100509 14 306 6.4 20.9 0.00 0.84 0.00 68 1015.1
20260507095004 12 198 4.8 19.3 0.00 0.84 0.00 73 1015.0
20260507093508 12 207 4.8 20.9 0.00 0.84 0.00 76 1014.8
20260507092003 12 270 6.4 20.9 0.00 0.84 0.00 75 1014.8
20260507090507 12 322 6.4 17.7 0.00 0.84 0.00 72 1014.5
20260507085004 13 254 4.8 19.3 0.00 0.84 0.00 72 1014.4
20260507082006 13 229 6.4 17.7 0.00 0.84 0.00 70 1014.2
20260507080510 13 263 6.4 20.9 0.00 0.84 0.00 72 1013.9
20260507075002 12 217 6.4 19.3 0.00 0.84 0.00 73 1013.9
20260507073503 12 246 6.4 17.7 0.00 0.84 0.00 75 1014.0
20260507072445 12 267 6.4 20.9 0.00 0.84 0.00 73 1014.0
20260507071811 12 211 6.4 17.7 0.00 0.84 0.00 75 1013.7
20260507065001 12 234 6.4 20.9 0.00 0.84 0.00 75 1013.6